Hourly Data Report for February 13, 2017

All times are specified in Local Standard Time (LST). Add 1 hour to adjust for Daylight Saving Time where and when it is observed.

TORONTO CITY
ONTARIO

43°40'00.000" N
79°24'00.000" W
112.50 m
6158355
71508
XTO

Download Data

Hourly Data (February 2017)
Hourly Data Report for February 13, 2017
TIME Temp Definition
°C
Dew Point Definition
°C
Rel Hum Definition
%
Wind Dir Definition
10's deg

Wind Spd Definition
km/h
Visibility Definition
km
Stn Press Definition
kPa
Hmdx Definition


Wind Chill Definition


Weather Definition


00:00 -1.1 -5.8 71 LegendMM LegendMM   99.52     LegendNANA
01:00 -1.3 -5.6 73 LegendMM LegendMM   99.60     LegendNANA
02:00 -0.9 -5.0 74 LegendMM LegendMM   99.72     LegendNANA
03:00 -0.8 -4.9 73 LegendMM LegendMM   99.87     LegendNANA
04:00 -1.0 -5.5 72 LegendMM LegendMM   99.99     LegendNANA
05:00 -1.5 -7.2 65 LegendMM LegendMM   100.13     LegendNANA
06:00 -2.0 -7.7 65 LegendMM LegendMM   100.22     LegendNANA
07:00 -2.3 -7.5 67 LegendMM LegendMM   100.31     LegendNANA
08:00 -2.7 -8.1 66 LegendMM LegendMM   100.42     LegendNANA
09:00 -2.9 -8.2 67 LegendMM LegendMM   100.51     LegendNANA
10:00 -2.7 -8.2 66 LegendMM LegendMM   100.59     LegendNANA
11:00 -2.7 -8.5 65 LegendMM LegendMM   100.65     LegendNANA
12:00 -2.7 -8.6 64 LegendMM LegendMM   100.66     LegendNANA
13:00 -2.6 -8.6 64 LegendMM LegendMM   100.65     LegendNANA
14:00 -2.3 -9.0 60 LegendMM LegendMM   100.58     LegendNANA
15:00 -1.5 -7.7 63 LegendMM LegendMM   100.57     LegendNANA
16:00 -1.6 -7.4 65 LegendMM LegendMM   100.54     LegendNANA
17:00 -1.2 -7.3 63 LegendMM LegendMM   100.48     LegendNANA
18:00 -1.4 -7.4 64 LegendMM LegendMM   100.45     LegendNANA
19:00 -1.8 -7.4 65 LegendMM LegendMM   100.46     LegendNANA
20:00 -1.9 -6.9 69 LegendMM LegendMM   100.42     LegendNANA
21:00 -1.6 -6.2 71 LegendMM LegendMM   100.38     LegendNANA
22:00 -2.6 -6.8 73 LegendMM LegendMM   100.32     LegendNANA
23:00 -2.6 -6.7 73 LegendMM LegendMM   100.25     LegendNANA

Notes on Data Quality.

Legend

  • E = Estimated
  • M = Missing
  • NA = Not Available
Date modified: